Mexia Limestone County Airpor, TX

12:35 PM CDT on October 20, 2019 (GMT -0500)
Mexia-Limestone County

Weather History for KLXY - September, 2019

Change the Weather History Date:

Friday, September 20, 2019

  Actual Average (KACT) Record (KACT)
Temperature  
Mean Temperature 84 °F -  
Max Temperature 94 °F 86 °F 100 °F (1954)
Min Temperature 75 °F 63 °F 49 °F (1971)
Cooling Degree Days 20    
Growing Degree Days 34 (Base 50)    
Moisture  
Dew Point 71 °F    
Average Humidity 71    
Maximum Humidity 96    
Minimum Humidity 39    
Precipitation  
Precipitation 0.00 in - - ()
Sea Level Pressure  
Sea Level Pressure 29.96 in    
Wind  
Wind Speed 11 mph (SSE)    
Max Wind Speed 20 mph    
Max Gust Speed 32 mph    
Visibility 10 miles    
Events      
Averages and records for this station are not official NWS values.
T = Trace of Precipitation, MM = Missing Value Source: NWS Daily Summary

Daily Weather History Graph

Daily Weather History Graph

Search for Another Location

Airport or City:

Astronomy

Sep. 20, 2019 Rise Set
Actual Time 7:12 AM CDT 7:25 PM CDT
Civil Twilight 6:48 AM CDT 7:49 PM CDT
Nautical Twilight 6:20 AM CDT 8:18 PM CDT
Astronomical Twilight 5:51 AM CDT 8:46 PM CDT
Moon 11:37 PM CDT 12:58 PM CDT
Length of Visible Light 13h 01m
Length of Day
12h 12m
Waning Gibbous, 65% of the Moon is Illuminated
Sep 20
Waning Gibbous
Sep 21
Last Quarter
Sep 28
New
Oct 5
First Quarter
Oct 13
Full

Hourly Weather History & Observations

Time (CDT) Temp. Heat Index Dew Point Humidity Pressure Visibility Wind Dir Wind Speed Gust Speed Precip Events Conditions
12:15 AM 75.2 °F - 69.8 °F 83% 29.93 in 10.0 mi SSE 8.1 mph 16.1 mph N/A   Overcast
12:35 AM 75.2 °F - 69.8 °F 83% 29.92 in 10.0 mi SSE 9.2 mph - N/A   Overcast
12:55 AM 75.2 °F - 70.0 °F 84% 29.92 in 10.0 mi SSE 8.1 mph - N/A   Overcast
1:15 AM 75.2 °F - 70.3 °F 85% 29.93 in 10.0 mi SSE 8.1 mph - N/A   Overcast
1:55 AM 75.2 °F - 71.2 °F 87% 29.94 in 10.0 mi SSE 8.1 mph - N/A   Overcast
2:15 AM 75.2 °F - 71.6 °F 89% 29.93 in 10.0 mi SSE 10.4 mph - N/A   Overcast
2:35 AM 75.4 °F - 71.8 °F 89% 29.93 in 10.0 mi SSE 6.9 mph - N/A   Overcast
2:55 AM 75.7 °F - 72.0 °F 88% 29.92 in 10.0 mi SSE 9.2 mph - N/A   Overcast
3:15 AM 76.1 °F - 72.5 °F 89% 29.92 in 10.0 mi SSE 11.5 mph 16.1 mph N/A   Overcast
3:35 AM 76.3 °F - 72.5 °F 88% 29.92 in 10.0 mi SSE 10.4 mph - N/A   Overcast
3:55 AM 76.5 °F - 72.7 °F 88% 29.92 in 10.0 mi SSE 9.2 mph - N/A   Overcast
4:15 AM 76.5 °F - 72.7 °F 88% 29.92 in 10.0 mi SSE 6.9 mph - N/A   Overcast
4:35 AM 77.0 °F - 73.4 °F 89% 29.92 in 10.0 mi SSE 9.2 mph - N/A   Overcast
4:55 AM 77.0 °F - 73.4 °F 89% 29.93 in 10.0 mi South 10.4 mph - N/A   Overcast
5:15 AM 77.2 °F - 73.4 °F 88% 29.93 in 10.0 mi SSE 8.1 mph - N/A   Overcast
5:35 AM 77.2 °F - 73.4 °F 88% 29.93 in 10.0 mi SSE 8.1 mph - N/A   Overcast
5:55 AM 77.2 °F - 73.6 °F 89% 29.94 in 10.0 mi SSE 8.1 mph - N/A   Overcast
6:15 AM 77.0 °F - 73.9 °F 90% 29.94 in 10.0 mi SSE 10.4 mph - N/A   Overcast
6:35 AM 77.0 °F - 74.8 °F 93% 29.94 in 10.0 mi SSE 9.2 mph - N/A   Overcast
6:55 AM 77.0 °F - 75.2 °F 94% 29.95 in 10.0 mi SSE 8.1 mph - N/A   Overcast
7:15 AM 77.0 °F - 75.4 °F 95% 29.95 in 10.0 mi SSE 8.1 mph 16.1 mph N/A   Overcast
7:35 AM 77.0 °F - 75.7 °F 96% 29.96 in 10.0 mi SSE 9.2 mph - N/A   Overcast
7:55 AM 77.0 °F - 75.6 °F 95% 29.97 in 10.0 mi SSE 5.8 mph - N/A   Overcast
8:15 AM 77.2 °F - 75.6 °F 95% 29.97 in 10.0 mi SSE 6.9 mph - N/A   Unknown
8:35 AM 77.7 °F - 75.4 °F 92% 29.98 in 10.0 mi SSE 6.9 mph - N/A   Mostly Cloudy
8:55 AM 78.8 °F - 74.8 °F 88% 29.98 in 10.0 mi South 9.2 mph - N/A   Overcast
9:15 AM 79.7 °F - 74.3 °F 83% 29.98 in 10.0 mi South 10.4 mph - N/A   Overcast
9:35 AM 81.5 °F 87.6 °F 74.7 °F 80% 29.99 in 10.0 mi South 10.4 mph - N/A   Overcast
9:55 AM 83.1 °F 90.1 °F 74.3 °F 75% 29.99 in 10.0 mi South 15.0 mph 25.3 mph N/A   Mostly Cloudy
10:15 AM 82.8 °F 88.7 °F 73.4 °F 73% 30.00 in 10.0 mi South 16.1 mph 26.5 mph N/A   Mostly Cloudy
10:35 AM 84.6 °F 90.0 °F 71.8 °F 65% 30.00 in 10.0 mi South 19.6 mph 27.6 mph N/A   Scattered Clouds
10:55 AM 85.3 °F 90.4 °F 70.9 °F 62% 30.00 in 10.0 mi South 16.1 mph 28.8 mph N/A   Scattered Clouds
11:15 AM 88.9 °F 94.7 °F 70.9 °F 55% 29.99 in 10.0 mi South 19.6 mph 29.9 mph N/A   Mostly Cloudy
11:35 AM 88.5 °F 93.5 °F 70.0 °F 54% 29.99 in 10.0 mi South 18.4 mph 31.1 mph N/A   Scattered Clouds
11:55 AM 90.1 °F 94.9 °F 69.4 °F 50% 29.99 in 10.0 mi South 18.4 mph 29.9 mph N/A   Scattered Clouds
12:15 PM 91.2 °F 96.0 °F 69.3 °F 48% 29.98 in 10.0 mi South 16.1 mph 26.5 mph N/A   Mostly Cloudy
12:35 PM 90.3 °F 94.7 °F 68.5 °F 49% 29.97 in 10.0 mi South 18.4 mph 24.2 mph N/A   Mostly Cloudy
12:55 PM 91.9 °F 96.4 °F 68.4 °F 46% 29.97 in 10.0 mi South 18.4 mph 28.8 mph N/A   Scattered Clouds
1:15 PM 92.3 °F 97.6 °F 69.4 °F 47% 29.96 in 10.0 mi South 16.1 mph 24.2 mph N/A   Scattered Clouds
1:35 PM 90.7 °F 95.4 °F 69.1 °F 49% 29.95 in 10.0 mi South 15.0 mph 20.7 mph N/A   Mostly Cloudy
1:55 PM 91.9 °F 96.4 °F 68.4 °F 46% 29.94 in 10.0 mi South 16.1 mph 23.0 mph N/A   Mostly Cloudy
2:15 PM 94.1 °F 98.4 °F 67.5 °F 42% 29.94 in 10.0 mi SSW 16.1 mph 25.3 mph N/A   Mostly Cloudy
2:35 PM 92.5 °F 95.9 °F 67.1 °F 43% 29.94 in 10.0 mi SSE 15.0 mph 26.5 mph N/A   Mostly Cloudy
2:55 PM 93.9 °F 97.5 °F 66.7 °F 41% 29.94 in 10.0 mi SSE 11.5 mph 24.2 mph N/A   Scattered Clouds
3:15 PM 94.6 °F 98.3 °F 66.6 °F 40% 29.92 in 10.0 mi SSE 18.4 mph 25.3 mph N/A   Mostly Cloudy
3:35 PM 93.9 °F 96.5 °F 65.8 °F 39% 29.91 in 10.0 mi South 18.4 mph 25.3 mph N/A   Scattered Clouds
3:55 PM 90.5 °F 96.0 °F 70.0 °F 51% 29.92 in 10.0 mi SE 13.8 mph 21.9 mph N/A   Mostly Cloudy
4:15 PM 90.9 °F 97.8 °F 71.6 °F 53% 29.92 in 10.0 mi SSE 13.8 mph 23.0 mph N/A   Scattered Clouds
4:35 PM 90.3 °F 97.2 °F 71.8 °F 54% 29.92 in 10.0 mi SE 17.3 mph 32.2 mph N/A   Clear
4:55 PM 89.1 °F 93.7 °F 69.1 °F 52% 29.93 in 10.0 mi South 19.6 mph 28.8 mph N/A   Clear
5:15 PM 86.5 °F 90.7 °F 69.1 °F 56% 29.94 in 10.0 mi SSE 18.4 mph 27.6 mph N/A   Clear
5:35 PM 84.9 °F 89.1 °F 69.8 °F 60% 29.94 in 10.0 mi SSE 19.6 mph 26.5 mph N/A   Clear
5:55 PM 85.5 °F 90.4 °F 70.7 °F 61% 29.94 in 10.0 mi SSE 19.6 mph 27.6 mph N/A   Clear
6:15 PM 85.1 °F 90.8 °F 71.6 °F 64% 29.95 in 10.0 mi SSE 16.1 mph 28.8 mph N/A   Clear
6:35 PM 84.2 °F 88.7 °F 70.2 °F 63% 29.95 in 10.0 mi SSE 18.4 mph 28.8 mph N/A   Clear
6:55 PM 83.5 °F 87.7 °F 70.3 °F 64% 29.95 in 10.0 mi SSE 16.1 mph 23.0 mph N/A   Clear
7:15 PM 82.9 °F 87.2 °F 70.7 °F 66% 29.95 in 10.0 mi SSE 15.0 mph 21.9 mph N/A   Clear
7:35 PM 82.4 °F 86.5 °F 70.5 °F 67% 29.96 in 10.0 mi SSE 16.1 mph 23.0 mph N/A   Clear
7:55 PM 81.7 °F 85.4 °F 70.3 °F 68% 29.97 in 10.0 mi SSE 15.0 mph 20.7 mph N/A   Clear
8:15 PM 81.0 °F 84.6 °F 70.3 °F 70% 29.99 in 10.0 mi South 12.7 mph 17.3 mph N/A   Clear
8:35 PM 80.6 °F 83.9 °F 69.8 °F 70% 30.00 in 10.0 mi SSE 10.4 mph 17.3 mph N/A   Scattered Clouds
8:55 PM 79.9 °F - 68.7 °F 69% 30.00 in 10.0 mi SSE 12.7 mph 19.6 mph N/A   Scattered Clouds
9:15 PM 79.7 °F - 68.7 °F 69% 30.01 in 10.0 mi SSE 12.7 mph 20.7 mph N/A   Scattered Clouds
9:35 PM 79.0 °F - 69.1 °F 72% 30.02 in 10.0 mi SSE 11.5 mph - N/A   Clear
9:55 PM 78.8 °F - 68.4 °F 70% 30.03 in 10.0 mi SSE 11.5 mph 18.4 mph N/A   Clear
10:15 PM 77.9 °F - 68.2 °F 72% 30.04 in 10.0 mi SSE 10.4 mph - N/A   Clear
10:35 PM 77.2 °F - 68.9 °F 76% 30.05 in 10.0 mi SSE 9.2 mph 17.3 mph N/A   Clear
10:55 PM 77.0 °F - 69.1 °F 76% 30.05 in 10.0 mi SSE 12.7 mph 19.6 mph N/A   Clear
11:15 PM 76.5 °F - 69.4 °F 79% 30.05 in 10.0 mi SSE 10.4 mph - N/A   Clear
11:35 PM 76.1 °F - 69.8 °F 81% 30.05 in 10.0 mi SSE 9.2 mph 19.6 mph N/A   Clear
11:55 PM 75.7 °F - 70.2 °F 83% 30.05 in 10.0 mi SSE 9.2 mph - N/A   Scattered Clouds